Regional Weather Roundup
Issued by NWS

Home | Current Version | Previous Version | Graphics & Text | Print | Product List | Glossary On
Versions: 1 2 3 4 5 6 7 8 9 10 11 12 13 14 15 16 17 18 19 20 21 22 23 24 25 26 27 28 29 30 31 32 33 34 35 36 37 38 39 40 41 42 43 44 45 46 47 48 49 50
000
ASUS43 KBIS 312010
RWRND

NORTH DAKOTA REGIONAL WEATHER ROUNDUP
NATIONAL WEATHER SERVICE BISMARCK ND
300 PM CDT TUE MAY 31 2016

NOTE: "FAIR" INDICATES FEW OR NO CLOUDS BELOW 12,000 FEET WITH NO
SIGNIFICANT WEATHER AND/OR OBSTRUCTIONS TO VISIBILITY.


NDZ001>003-009>011-017-312100-
NORTHWEST NORTH DAKOTA

CITY           SKY/WX    TMP DP  RH WIND       PRES   REMARKS
WILLISTON      LGT RAIN  54  50  86 N28G36    29.84R
MINOT          CLOUDY    66  47  50 S7        29.62R
MINOT AFB      PTSUNNY   64  54  70 N14       29.60R
$$

NDZ018>021-031>035-040>046-312100-
SOUTHWEST NORTH DAKOTA

CITY           SKY/WX    TMP DP  RH WIND       PRES   REMARKS
BISMARCK       CLOUDY    58  51  78 SW15      29.65F
DICKINSON      LGT RAIN  50  47  89 NW32G43   29.73R
GARRISON         N/A     60  49  66 W5        29.63R
HETTINGER ARPT LGT RAIN  51  48  89 NW29G40   29.81R
$$

NDZ004>008-012>016-024-026-027-054-312100-
NORTHEAST NORTH DAKOTA

CITY           SKY/WX    TMP DP  RH WIND       PRES   REMARKS
GRAND FORKS    PTSUNNY   64  50  60 SW21G28   29.68F
GRND FRKS AFB  PTSUNNY   65  49  55 SW17G23   29.69S
DEVILS LAKE    MOSUNNY   63  49  60 SW12      29.66F
$$

NDZ022-023-025-028>030-036>039-047>053-312100-
SOUTHEAST NORTH DAKOTA

CITY           SKY/WX    TMP DP  RH WIND       PRES   REMARKS
FARGO          PTSUNNY   70  45  40 SW22G29   29.73F
JAMESTOWN      CLOUDY    64  47  53 SW17G23   29.67F
$$




USA.gov is the U.S. government's official web portal to all federal, state and local government web resources and services.